Date String (YYYY-MM-DD hh:mm:ss) UTC,Instrument flags,Ambient pressure (hPa),Sample flow (lpm),Bypass flow (lpm),Sample temperature (°C),Ambient temperature (°C),ASC tube jacket temperature (°C),LED temperature (°C),Box temperature (°C),Sample RH (%),Span deviation,Mass concentration (μg/m³),Mass concentration (μg/m³),Mass concentration (μg/m³)
DateTimeUTC,F1_M11,P_M11,Q1_M11,Q2_M11,T1_M11,T2_M11,T3_M11,T4_M11,T5_M11,U1_M11,ZSPAN_M11,X0_M11,X2_M11,X1_M11
2022-09-02 13:00:00,,0827.6,5.00,0.00,30.1,28.8,00.0,39.0,31.9,13.0,0000.0,0013.17,0006.09,0005.10
2022-09-02 13:01:00,,0827.7,5.00,0.00,30.2,28.9,00.0,39.0,32.0,13.1,0000.0,0013.43,0006.02,0005.06
2022-09-02 13:02:00,,0827.7,5.00,0.00,30.2,28.9,00.0,39.0,32.0,13.1,0000.0,0013.43,0006.03,0005.05
2022-09-02 13:03:00,,0827.7,4.98,0.00,30.2,29.0,00.0,39.0,32.0,13.1,0000.0,0014.17,0005.99,0005.05
2022-09-02 13:04:00,,0827.7,5.01,0.00,30.2,29.1,00.0,39.0,32.0,13.1,0000.0,0014.35,0005.99,0005.05
2022-09-02 13:05:00,,0827.7,5.01,0.00,30.2,29.1,00.0,39.0,32.1,13.2,0000.0,0014.20,0006.02,0005.06
2022-09-02 13:06:00,,0827.7,4.98,0.00,30.3,29.2,00.0,39.0,32.1,13.2,0000.0,0014.06,0006.04,0005.08
2022-09-02 13:07:00,,0827.8,5.01,0.00,30.3,29.2,00.0,39.0,32.1,13.1,0000.0,0013.50,0006.01,0005.10
2022-09-02 13:08:00,,0827.8,5.00,0.00,30.3,29.2,00.0,39.1,32.1,13.1,0000.0,0012.84,0006.00,0005.14
2022-09-02 13:09:00,,0827.8,5.00,0.00,30.3,29.3,00.0,39.1,32.2,13.2,0000.0,0012.35,0006.02,0005.18
2022-09-02 13:10:00,,0827.9,4.99,0.00,30.4,29.3,00.0,39.1,32.2,13.3,0000.0,0012.24,0006.03,0005.23
2022-09-02 13:11:00,,0827.9,5.00,0.00,30.4,29.3,00.0,39.1,32.2,13.2,0000.0,0011.85,0006.01,0005.28
2022-09-02 13:12:00,,0827.9,5.00,0.00,30.4,29.3,00.0,39.1,32.2,13.5,0000.0,0011.42,0005.99,0005.31
2022-09-02 13:13:00,,0827.9,4.99,0.00,30.4,29.4,00.0,39.2,32.3,13.2,0000.0,0011.87,0005.97,0005.32
2022-09-02 13:14:00,,0827.9,5.01,0.00,30.5,29.4,00.0,39.2,32.3,12.9,0000.0,0010.85,0005.94,0005.33
2022-09-02 13:15:00,,0827.9,5.01,0.00,30.5,29.5,00.0,39.2,32.3,12.9,0000.0,0010.41,0005.86,0005.30
2022-09-02 13:16:00,,0827.8,4.99,0.00,30.5,29.5,00.0,39.2,32.4,12.9,0000.0,0010.32,0005.83,0005.26
2022-09-02 13:17:00,,0827.9,5.01,0.00,30.5,29.5,00.0,39.2,32.4,13.0,0000.0,0010.33,0005.77,0005.20
2022-09-02 13:18:00,,0827.9,4.99,0.00,30.5,28.5,00.0,39.2,32.3,13.0,0000.0,0010.47,0005.78,0005.16
2022-09-02 13:19:00,,0827.9,5.01,0.00,30.5,27.0,00.0,39.2,32.1,13.0,0000.0,0010.66,0005.76,0005.13
2022-09-02 13:20:00,,0827.9,4.99,0.00,30.4,26.7,00.0,39.1,32.0,13.0,0000.0,0010.66,0005.73,0005.10
2022-09-02 13:21:00,,0827.9,5.01,0.00,30.3,26.9,00.0,39.1,31.9,13.0,0000.0,0010.86,0005.73,0005.06
2022-09-02 13:22:00,,0828.0,4.99,0.00,30.2,27.3,00.0,39.0,31.8,13.1,0000.0,0011.42,0005.76,0005.04
2022-09-02 13:23:00,,0828.0,5.00,0.00,30.2,27.6,00.0,39.0,31.8,13.2,0000.0,0011.30,0005.75,0005.03
2022-09-02 13:24:00,,0828.0,5.00,0.00,30.2,27.9,00.0,39.0,31.8,13.2,0000.0,0010.78,0005.74,0005.02
2022-09-02 13:25:00,,0828.0,5.01,0.00,30.1,28.2,00.0,39.0,31.9,13.4,0000.0,0010.62,0005.73,0004.99
2022-09-02 13:26:00,,0828.1,5.00,0.00,30.1,28.4,00.0,39.0,31.9,13.4,0000.0,0010.61,0005.76,0005.00
2022-09-02 13:27:00,,0828.0,5.01,0.00,30.1,28.5,00.0,39.0,31.9,13.4,0000.0,0011.24,0005.79,0005.01
2022-09-02 13:28:00,,0828.0,5.01,0.00,30.1,28.6,00.0,39.0,31.9,13.5,0000.0,0011.90,0005.84,0005.03
2022-09-02 13:29:00,,0828.0,5.00,0.00,30.1,28.7,00.0,39.0,31.9,13.6,0000.0,0012.13,0005.87,0005.03
2022-09-02 13:30:00,,0828.1,4.98,0.00,30.2,28.8,00.0,39.0,32.0,13.7,0000.0,0012.14,0005.88,0005.01
2022-09-02 13:31:00,,0828.1,5.01,0.00,30.2,28.9,00.0,39.0,32.0,13.8,0000.0,0012.32,0005.85,0005.00
2022-09-02 13:32:00,,0828.1,5.01,0.00,30.2,29.0,00.0,39.0,32.0,14.1,0000.0,0012.17,0005.81,0004.99
2022-09-02 13:33:00,,0828.1,5.00,0.00,30.2,29.0,00.0,39.0,32.0,14.3,0000.0,0011.66,0005.77,0004.97
2022-09-02 13:34:00,,0828.1,4.99,0.00,30.2,29.1,00.0,39.0,32.1,14.2,0000.0,0011.69,0005.76,0004.94
2022-09-02 13:35:00,,0828.1,5.01,0.00,30.3,29.1,00.0,39.0,32.1,13.9,0000.0,0012.28,0005.72,0004.89
2022-09-02 13:36:00,,0828.1,5.01,0.00,30.3,29.2,00.0,39.0,32.1,13.9,0000.0,0012.47,0005.74,0004.86
2022-09-02 13:37:00,,0828.1,4.99,0.00,30.3,29.2,00.0,39.0,32.2,14.4,0000.0,0012.35,0005.74,0004.84
2022-09-02 13:38:00,,0828.2,5.00,0.00,30.3,29.3,00.0,39.1,32.2,14.7,0000.0,0011.76,0005.72,0004.84
2022-09-02 13:39:00,,0828.1,5.01,0.00,30.4,29.3,00.0,39.1,32.2,14.0,0000.0,0011.59,0005.66,0004.82
2022-09-02 13:40:00,,0828.1,4.98,0.00,30.4,29.3,00.0,39.1,32.2,13.6,0000.0,0011.39,0005.56,0004.79
2022-09-02 13:41:00,,0828.2,5.01,0.00,30.4,29.4,00.0,39.1,32.3,13.8,0000.0,0011.10,0005.49,0004.75
2022-09-02 13:42:00,,0828.2,5.01,0.00,30.4,29.2,00.0,39.1,32.3,13.7,0000.0,0010.77,0005.46,0004.72
2022-09-02 13:43:00,,0828.2,4.98,0.00,30.4,27.9,00.0,39.1,32.1,13.5,0000.0,0010.86,0005.44,0004.68
2022-09-02 13:44:00,,0828.2,5.01,0.00,30.4,27.0,00.0,39.1,32.0,13.7,0000.0,0010.80,0005.39,0004.64
2022-09-02 13:45:00,,0828.2,4.99,0.00,30.3,27.1,00.0,39.1,32.0,13.8,0000.0,0010.82,0005.38,0004.61
2022-09-02 13:46:00,,0828.2,5.00,0.00,30.2,27.4,00.0,39.0,31.9,14.0,0000.0,0010.74,0005.38,0004.60
2022-09-02 13:47:00,,0828.2,5.00,0.00,30.2,27.8,00.0,39.0,31.9,13.7,0000.0,0010.95,0005.31,0004.60
2022-09-02 13:48:00,,0828.2,4.99,0.00,30.2,28.1,00.0,39.0,31.9,13.8,0000.0,0010.88,0005.25,0004.58
2022-09-02 13:49:00,,0828.2,5.01,0.00,30.2,28.3,00.0,39.0,31.9,13.6,0000.0,0010.71,0005.18,0004.55
2022-09-02 13:50:00,,0828.2,5.00,0.00,30.2,28.5,00.0,39.0,31.9,13.4,0000.0,0011.47,0005.14,0004.53
2022-09-02 13:51:00,,0828.2,5.01,0.00,30.2,28.6,00.0,39.0,32.0,13.5,0000.0,0011.45,0005.13,0004.52
2022-09-02 13:52:00,,0828.2,5.00,0.00,30.2,28.8,00.0,39.0,32.0,13.9,0000.0,0011.51,0005.14,0004.53
2022-09-02 13:53:00,,0828.3,4.99,0.00,30.2,28.9,00.0,39.0,32.0,14.3,0000.0,0011.88,0005.19,0004.55
2022-09-02 13:54:00,,0828.3,5.00,0.00,30.2,29.0,00.0,39.0,32.0,14.2,0000.0,0013.67,0005.19,0004.55
2022-09-02 13:55:00,,0828.3,5.01,0.00,30.2,29.0,00.0,39.0,32.1,15.7,0000.0,0014.43,0005.19,0004.56
2022-09-02 13:56:00,,0828.3,4.99,0.00,30.3,29.1,00.0,39.0,32.1,15.8,0000.0,0014.36,0005.18,0004.57
2022-09-02 13:57:00,,0828.3,5.00,0.00,30.3,29.1,00.0,39.0,32.1,15.1,0000.0,0014.13,0005.22,0004.58
2022-09-02 13:58:00,,0828.3,5.01,0.00,30.3,29.2,00.0,39.0,32.1,14.6,0000.0,0013.86,0005.30,0004.59
2022-09-02 13:59:00,,0828.3,4.99,0.00,30.3,29.3,00.0,39.1,32.2,14.6,0000.0,0013.76,0005.32,0004.60
